Total_Precipitation_Accumulation
1.78 2.25 2.80 3.66 4.75 5.69 5.98 5.49 5.01 4.70 4.33 3.98 3.40 3.09 3.19 3.16 2.92 2.63 2.31 2.23 2.12 2.18 2.40 2.19 2.40 2.24 2.35 2.47 2.57 2.72 2.78 2.68 2.73 2.92 2.88 2.48 2.14 2.06 1.99 2.05 2.26 2.14 2.12
1.97 2.70 3.71 4.29 4.58 4.72 4.46 4.14 3.90 3.71 3.27 3.04 2.93 2.75 2.80 2.56 2.40 2.30 2.36 2.01 1.89 1.96 1.95 2.21 2.22 2.24 2.45 2.49 2.48 2.66 2.64 2.44 2.50 2.80 3.05 2.72 2.48 2.05 1.55 1.64 1.63 1.71 1.99
2.15 2.98 3.56 3.68 3.44 3.11 2.99 2.94 3.02 2.78 2.68 2.76 2.72 2.67 2.76 2.47 2.28 2.21 2.28 1.93 1.69 1.71 1.83 1.93 2.06 2.29 2.23 2.42 2.49 2.40 2.49 2.54 2.49 2.51 2.90 2.86 2.67 2.26 1.69 1.45 1.47 1.62 1.84
1.73 2.16 2.42 2.31 2.41 2.54 2.54 2.65 2.75 2.50 2.50 2.47 2.23 2.19 2.17 2.07 2.04 2.06 2.15 2.20 1.81 1.65 1.64 1.75 1.93 2.13 2.05 2.31 2.08 2.22 2.48 2.58 2.43 2.36 2.28 2.32 2.42 2.53 2.17 1.72 1.45 1.53 1.62
1.20 1.32 1.43 1.54 1.74 1.86 2.03 2.29 2.54 2.48 2.33 2.15 2.14 2.24 2.11 2.12 2.13 2.15 2.24 2.32 2.09 1.82 1.65 1.75 1.92 2.00 1.93 1.99 2.01 2.37 2.37 2.31 2.28 2.30 2.33 2.29 2.24 2.16 2.22 2.02 1.70 1.53 1.31
1.06 1.13 1.15 1.26 1.41 1.55 1.77 2.02 2.35 2.41 2.30 2.14 2.08 2.18 2.26 2.26 2.20 2.22 2.22 2.05 2.00 1.98 1.81 1.81 1.91 1.84 1.80 1.85 1.92 2.18 2.21 2.29 2.39 2.39 2.25 2.30 2.19 2.09 2.25 1.97 1.69 1.54 1.11
1.02 1.14 1.13 1.07 1.10 1.22 1.38 1.49 1.72 1.99 2.10 2.06 2.04 2.09 2.27 2.20 2.03 1.94 1.91 1.90 1.71 1.65 1.70 1.78 1.91 1.74 1.68 1.76 1.99 2.12 2.14 2.24 2.27 2.20 2.08 2.03 1.84 1.96 2.06 1.92 1.58 1.48 1.15
0.94 1.04 1.04 0.97 0.97 1.01 1.17 1.32 1.58 1.74 1.93 1.98 1.97 2.02 2.11 2.01 1.87 1.89 1.71 1.71 1.65 1.55 1.64 1.70 1.70 1.66 1.66 1.67 2.03 1.95 2.01 2.11 2.03 1.87 2.17 2.04 1.72 1.90 2.00 2.06 2.18 1.91 1.62
0.77 0.89 0.92 1.02 1.05 1.00 1.08 1.23 1.52 1.79 2.00 2.10 2.15 2.09 2.10 2.11 2.06 1.99 1.75 1.56 1.69 1.59 1.69 1.74 1.70 1.72 1.86 2.01 2.19 2.04 2.06 2.14 1.95 1.96 2.23 2.07 1.87 1.89 1.92 2.11 2.39 2.48 2.09
0.75 0.96 1.12 1.11 0.99 0.87 0.92 1.10 1.38 1.80 2.02 2.15 2.12 2.00 2.16 2.09 2.05 1.99 1.81 1.65 1.63 1.63 1.75 1.90 1.88 1.93 1.98 2.11 2.22 2.02 2.10 2.10 1.99 2.05 2.26 2.25 2.08 2.10 2.02 2.10 2.28 2.51 2.43
0.82 1.01 1.24 1.19 0.94 0.83 0.82 0.97 1.32 1.64 1.81 1.92 1.99 1.90 1.87 1.82 1.83 1.85 1.82 1.79 1.77 1.71 1.74 1.87 1.94 1.91 1.95 2.04 2.13 1.96 2.02 1.98 2.00 1.99 2.10 2.18 2.36 2.34 2.25 2.39 2.45 2.51 2.60
0.89 0.90 1.02 1.17 1.08 0.96 0.90 1.05 1.33 1.54 1.64 1.71 1.73 1.72 1.76 1.76 1.68 1.64 1.71 1.77 1.68 1.60 1.66 1.73 1.73 1.65 1.76 1.93 1.95 1.87 1.95 2.00 1.96 2.08 2.29 2.22 2.33 2.41 2.44 2.63 2.50 2.55 2.84
0.72 0.76 0.89 1.04 1.14 1.11 1.10 1.24 1.38 1.46 1.51 1.46 1.48 1.51 1.52 1.51 1.50 1.50 1.55 1.64 1.67 1.66 1.65 1.62 1.55 1.56 1.63 1.73 1.75 1.89 2.03 2.05 2.08 2.22 2.35 2.40 2.62 2.50 2.56 2.60 2.52 2.57 2.81
0.74 0.75 0.85 1.06 1.13 1.18 1.17 1.17 1.29 1.45 1.45 1.37 1.42 1.56 1.61 1.63 1.65 1.61 1.65 1.75 1.83 1.77 1.79 1.78 1.81 1.85 1.82 1.83 1.93 2.05 2.13 2.16 2.22 2.38 2.42 2.46 2.57 2.64 2.80 2.78 2.83 2.98 3.15
0.79 0.79 0.86 1.05 1.18 1.34 1.36 1.31 1.30 1.38 1.52 1.63 1.69 1.84 2.00 2.03 1.93 1.90 1.97 2.02 2.06 1.99 2.15 2.17 2.19 2.28 2.21 2.02 2.18 2.28 2.27 2.45 2.42 2.47 2.44 2.39 2.55 2.67 2.80 2.65 2.84 3.17 3.33
0.80 0.75 0.85 1.06 1.11 1.14 1.21 1.24 1.26 1.31 1.37 1.46 1.61 1.81 2.02 2.12 2.11 2.15 2.29 2.31 2.26 2.38 2.52 2.48 2.46 2.41 2.12 2.27 2.38 2.40 2.49 2.57 2.51 2.49 2.51 2.45 2.46 2.41 2.45 2.49 2.60 2.83 3.00
0.81 0.80 0.81 0.92 1.12 1.06 1.06 1.19 1.28 1.35 1.48 1.70 1.89 1.98 2.14 2.27 2.30 2.27 2.31 2.35 2.41 2.44 2.51 2.51 2.55 2.40 2.38 2.47 2.28 2.31 2.30 2.42 2.52 2.56 2.57 2.34 2.17 2.25 2.13 2.31 2.40 2.36 2.39
1.09 1.12 1.18 1.19 1.25 1.20 1.18 1.26 1.38 1.49 1.54 1.63 1.79 1.93 2.13 2.28 2.40 2.51 2.53 2.62 2.72 2.75 2.75 2.69 2.68 2.62 2.50 2.46 2.23 2.31 2.19 2.22 2.28 2.33 2.35 2.29 2.18 2.16 2.27 2.28 2.15 1.94 1.88
1.13 1.26 1.31 1.33 1.32 1.38 1.48 1.63 1.66 1.79 1.89 1.92 2.09 2.21 2.31 2.47 2.55 2.61 2.75 2.88 2.99 2.98 2.98 2.94 2.90 2.85 2.83 2.79 2.48 2.39 2.19 2.22 2.21 2.25 2.26 2.21 2.05 2.20 2.16 2.08 2.03 1.88 1.73
1.26 1.36 1.36 1.39 1.56 1.61 1.67 1.81 2.01 2.11 2.23 2.34 2.46 2.61 2.73 2.79 2.75 2.77 2.88 2.95 3.01 3.01 3.01 2.91 2.92 2.86 2.84 2.96 2.70 2.47 2.20 2.22 2.24 2.33 2.33 2.32 2.14 2.18 2.11 2.03 2.02 1.89 1.79
1.42 1.43 1.45 1.53 1.66 1.72 1.77 1.95 2.21 2.39 2.54 2.61 2.65 2.72 2.87 3.05 3.15 3.22 3.05 2.90 2.90 2.97 3.04 2.99 3.02 3.02 2.98 2.99 2.62 2.44 2.30 2.31 2.33 2.28 2.22 2.24 2.25 2.01 1.86 1.78 1.76 1.82 1.92
1.60 1.61 1.63 1.70 1.76 1.88 2.00 2.12 2.33 2.42 2.53 2.54 2.63 2.72 2.80 2.78 2.83 3.09 3.15 3.09 3.00 2.92 2.92 2.99 2.91 2.82 2.78 2.66 2.34 2.11 2.08 2.13 2.13 2.12 2.11 2.12 2.08 1.85 1.65 1.47 1.41 1.52 1.56
1.60 1.59 1.63 1.78 1.80 1.83 1.99 2.23 2.29 2.32 2.30 2.41 2.54 2.72 2.80 2.86 2.84 2.85 2.91 2.92 2.88 2.74 2.58 2.60 2.62 2.64 2.65 2.54 2.24 1.94 1.83 1.84 1.77 1.84 2.03 2.03 1.89 1.75 1.63 1.55 1.48 1.39 1.30
1.60 1.66 1.59 1.60 1.73 1.84 2.01 2.09 2.10 2.18 2.35 2.42 2.47 2.53 2.58 2.60 2.68 2.82 2.78 2.73 2.74 2.70 2.55 2.55 2.57 2.57 2.52 2.32 2.05 1.88 1.78 1.74 1.67 1.74 1.94 2.01 1.97 1.85 1.74 1.66 1.50 1.31 1.28
1.52 1.60 1.67 1.68 1.74 1.80 1.95 2.08 2.10 2.12 2.21 2.21 2.15 2.22 2.33 2.40 2.42 2.58 2.66 2.53 2.44 2.48 2.40 2.46 2.64 2.58 2.36 2.19 2.04 1.80 1.71 1.70 1.77 1.81 1.90 2.03 2.06 2.04 1.93 1.78 1.63 1.50 1.40
1.48 1.60 1.64 1.72 1.76 1.79 1.87 1.91 1.95 2.05 2.15 2.20 2.18 2.18 2.24 2.31 2.35 2.33 2.39 2.42 2.20 2.15 2.03 2.08 2.17 2.21 2.10 1.99 1.92 1.81 1.74 1.69 1.69 1.67 1.77 2.04 2.12 2.13 2.11 1.99 1.79 1.62 1.51